Weather in Beklemishevo

Russia / Ulyanovsk Oblast     53°51′32″N   47°24′29″E
temp.,
°C
wind,
m/s
gust,
m/s
humid.,
%
clouds,
%
prec.,
mm/h
press.,
hPa
HPBL,
m
28 september, tue
tue2801:00+6ne6985100 0.0 1017610
04:00+4ne5891100 0.1 1020747
07:00+3ne6988100 0.1 1022920
10:00+5ne697267 0.1 10231045
13:00+7ne68555 0.0 10241234
16:00+8ne785011 0.0 10251386
19:00+6nne596273 0.0 1027730
22:00+3nne387510 0.0 1028229
29 september, wed
wed2901:00+2n377997 0.0 1029191
04:00+2n388195 0.0 1029201
07:00+1n38845 0.0 1030175
10:00+6nne47665 0.0 1031712
13:00+9nne454942 0.0 10301506
16:00+9nne55465 0.0 10301514
19:00+5nne226352 0.0 103137
22:00+3nne11695 0.0 103210
30 september, thu
thu3001:00+2nw11735 0.0 103210
04:00+1nw22785 0.0 103219
07:00+1nnw22825 0.0 103326
10:00+6n34615 0.0 1033423
13:00+9nne345396 0.0 10331443
16:00+9nne3450100 0.0 10321227
19:00+8nnw226295 0.0 103249
22:00+6nw227475 0.0 103329
1 october, fri
fri101:00+5w228081 0.0 103328
04:00+6w2576100 0.0 1032161
07:00+7w3977100 0.0 1032292
10:00+7w3782100 0.0 1032316
13:00+10wnw3479100 0.0 1032484
16:00+11wnw3575100 0.1 1031416
19:00+10w1177100 0.0 103115
22:00+10nnw2276100 0.0 103235
2 october, sat
sat201:00+9nnw2279100 0.0 103252
04:00+9nnw2279100 0.0 103237
07:00+9nnw237956 0.0 103365
10:00+11n23665 0.0 1034399
13:00+14n22535 0.0 10331115
16:00+15nnw125221 0.0 10331222
19:00+11nnw11695 0.0 103310
22:00+9nw117859 0.0 103410